When you browse on this site, cookies collect data to enhance your experience and personalize the content and advertising you see.
Visit our Privacy Policy to learn more. By continuing to use the site, you agree to this use of cookies and data.
  • In Hungary
  • List of Countries
  • For 7 days
  • Water Temperature
  • Weather Map
  • News
  • Weather Widgets
  • user-avatar
    Login

    Hourly Weather Tibissa

    Today, 31 May, Sunday

    Time Temperature Precipitation Wind Pressure Humidity
    00:00 +17°C° 0 mm 3 mps 684 mmHg 61%
    01:00 +17°C° 0 mm 2 mps 684 mmHg 63%
    02:00 +16°C° 0 mm 1 mps 684 mmHg 64%
    03:00 +16°C° 0 mm 1 mps 684 mmHg 65%
    04:00 +16°C° 0 mm 1 mps 684 mmHg 67%
    05:00 +16°C° 0 mm 1 mps 684 mmHg 64%
    06:00 +15°C° 0 mm 0 mps 684 mmHg 61%
    07:00 +16°C° 0 mm 0 mps 684 mmHg 58%
    08:00 +17°C° 0 mm 0 mps 685 mmHg 52%
    09:00 +19°C° 0 mm 0 mps 685 mmHg 47%
    10:00 +22°C° 0 mm 1 mps 686 mmHg 41%
    11:00 +24°C° 0 mm 2 mps 686 mmHg 37%
    12:00 +25°C° 0 mm 2 mps 686 mmHg 34%
    13:00 +27°C° 0 mm 3 mps 686 mmHg 30%
    14:00 +27°C° 0 mm 4 mps 686 mmHg 28%
    15:00 +28°C° 0 mm 4 mps 686 mmHg 27%
    16:00 +29°C° 0 mm 4 mps 686 mmHg 25%
    17:00 +28°C° 0 mm 4 mps 686 mmHg 26%
    18:00 +27°C° 0 mm 4 mps 685 mmHg 27%
    19:00 +27°C° 0 mm 3 mps 685 mmHg 28%
    20:00 +25°C° 0 mm 3 mps 685 mmHg 33%
    21:00 +24°C° 0 mm 2 mps 686 mmHg 38%
    22:00 +23°C° 0 mm 2 mps 686 mmHg 43%
    23:00 +21°C° 0 mm 2 mps 686 mmHg 49%

    Tomorrow, 1 June, Monday

    Time Temperature Precipitation Wind Pressure Humidity
    00:00 +20°C° 0 mm 2 mps 685 mmHg 55%
    01:00 +20°C° 0 mm 2 mps 685 mmHg 60%
    02:00 +19°C° 0 mm 2 mps 684 mmHg 63%
    03:00 +19°C° 0 mm 2 mps 684 mmHg 66%
    04:00 +19°C° 0 mm 2 mps 684 mmHg 69%
    05:00 +19°C° 0 mm 2 mps 684 mmHg 67%
    06:00 +20°C° 0 mm 2 mps 684 mmHg 66%
    07:00 +20°C° 0 mm 2 mps 685 mmHg 64%
    08:00 +23°C° 0.1 mm 2 mps 685 mmHg 58%
    09:00 +24°C° 0.1 mm 2 mps 686 mmHg 52%
    10:00 +26°C° 0.1 mm 2 mps 686 mmHg 45%
    11:00 +27°C° 0 mm 2 mps 686 mmHg 42%
    12:00 +28°C° 0 mm 3 mps 686 mmHg 38%
    13:00 +29°C° 0 mm 3 mps 686 mmHg 35%
    14:00 +29°C° 0 mm 3 mps 685 mmHg 35%
    15:00 +30°C° 0 mm 3 mps 685 mmHg 35%
    16:00 +30°C° 0 mm 4 mps 685 mmHg 34%
    17:00 +28°C° 2 mm 4 mps 685 mmHg 44%
    18:00 +25°C° 2 mm 5 mps 685 mmHg 54%
    19:00 +22°C° 2 mm 6 mps 684 mmHg 65%
    20:00 +21°C° 1.5 mm 5 mps 685 mmHg 66%
    21:00 +20°C° 1.5 mm 3 mps 685 mmHg 68%
    22:00 +19°C° 1.5 mm 2 mps 686 mmHg 70%
    23:00 +20°C° 0 mm 1 mps 686 mmHg 71%

    Day after tomorrow, 2 June, Tuesday

    Time Temperature Precipitation Wind Pressure Humidity
    00:00 +20°C° 0 mm 1 mps 685 mmHg 71%
    01:00 +20°C° 0 mm 1 mps 685 mmHg 72%
    02:00 +20°C° 0 mm 1 mps 685 mmHg 74%
    03:00 +20°C° 0 mm 1 mps 685 mmHg 76%
    04:00 +19°C° 0 mm 1 mps 685 mmHg 78%
    05:00 +19°C° 0 mm 1 mps 685 mmHg 75%
    06:00 +20°C° 0 mm 1 mps 685 mmHg 73%
    07:00 +20°C° 0 mm 1 mps 686 mmHg 71%
    08:00 +21°C° 0 mm 1 mps 686 mmHg 61%
    09:00 +23°C° 0 mm 2 mps 686 mmHg 50%
    10:00 +24°C° 0 mm 2 mps 687 mmHg 40%
    11:00 +26°C° 0 mm 3 mps 687 mmHg 35%
    12:00 +27°C° 0 mm 3 mps 687 mmHg 30%
    13:00 +28°C° 0 mm 4 mps 687 mmHg 25%
    14:00 +29°C° 0 mm 4 mps 686 mmHg 24%
    15:00 +29°C° 0 mm 4 mps 686 mmHg 23%
    16:00 +30°C° 0 mm 4 mps 686 mmHg 22%
    17:00 +29°C° 0 mm 4 mps 685 mmHg 24%
    18:00 +29°C° 0 mm 3 mps 685 mmHg 26%
    19:00 +28°C° 0 mm 3 mps 685 mmHg 28%
    20:00 +27°C° 0 mm 3 mps 685 mmHg 33%
    21:00 +26°C° 0 mm 3 mps 685 mmHg 39%
    22:00 +24°C° 0 mm 3 mps 685 mmHg 44%
    23:00 +24°C° 0 mm 3 mps 685 mmHg 46%

    3 June, Wednesday

    Time Temperature Precipitation Wind Pressure Humidity
    00:00 +22°C° 0 mm 3 mps 684 mmHg 49%
    01:00 +21°C° 0 mm 3 mps 684 mmHg 51%
    02:00 +21°C° 0 mm 4 mps 684 mmHg 50%
    03:00 +21°C° 0 mm 4 mps 683 mmHg 50%
    04:00 +20°C° 0 mm 5 mps 683 mmHg 49%
    05:00 +21°C° 0 mm 4 mps 683 mmHg 48%
    06:00 +21°C° 0 mm 4 mps 683 mmHg 47%
    07:00 +22°C° 0 mm 4 mps 682 mmHg 46%
    08:00 +23°C° 0 mm 5 mps 683 mmHg 43%
    09:00 +26°C° 0 mm 5 mps 683 mmHg 40%
    10:00 +28°C° 0 mm 6 mps 684 mmHg 38%
    11:00 +29°C° 0 mm 7 mps 684 mmHg 35%
    12:00 +30°C° 0 mm 7 mps 684 mmHg 33%
    13:00 +32°C° 0 mm 8 mps 684 mmHg 31%
    14:00 +32°C° 0 mm 7 mps 683 mmHg 30%
    15:00 +33°C° 0 mm 6 mps 683 mmHg 29%
    16:00 +33°C° 0 mm 6 mps 682 mmHg 28%
    17:00 +32°C° 0 mm 5 mps 682 mmHg 30%
    18:00 +30°C° 0 mm 5 mps 682 mmHg 32%
    19:00 +29°C° 0 mm 5 mps 682 mmHg 34%
    20:00 +28°C° 0 mm 4 mps 682 mmHg 37%
    21:00 +27°C° 0 mm 3 mps 682 mmHg 41%
    22:00 +26°C° 0 mm 2 mps 682 mmHg 44%
    23:00 +26°C° 0 mm 3 mps 682 mmHg 44%

    4 June, Thursday

    Time Temperature Precipitation Wind Pressure Humidity
    00:00 +25°C° 0 mm 3 mps 682 mmHg 44%
    01:00 +25°C° 0 mm 3 mps 682 mmHg 44%
    02:00 +25°C° 0 mm 3 mps 682 mmHg 45%
    03:00 +24°C° 0 mm 3 mps 681 mmHg 46%
    04:00 +24°C° 0 mm 3 mps 681 mmHg 48%
    05:00 +25°C° 0.2 mm 3 mps 682 mmHg 46%
    06:00 +25°C° 0.2 mm 2 mps 682 mmHg 45%
    07:00 +26°C° 0.2 mm 2 mps 682 mmHg 44%
    08:00 +28°C° 0 mm 4 mps 683 mmHg 38%
    09:00 +30°C° 0 mm 5 mps 683 mmHg 31%
    10:00 +34°C° 0 mm 7 mps 684 mmHg 25%
    11:00 +34°C° 0 mm 8 mps 684 mmHg 23%
    12:00 +35°C° 0 mm 9 mps 684 mmHg 21%
    13:00 +37°C° 0 mm 10 mps 684 mmHg 20%
    14:00 +38°C° 0 mm 10 mps 683 mmHg 19%
    15:00 +38°C° 0 mm 10 mps 683 mmHg 18%
    16:00 +38°C° 0 mm 10 mps 683 mmHg 17%
    17:00 +37°C° 0 mm 8 mps 682 mmHg 18%
    18:00 +35°C° 0 mm 6 mps 682 mmHg 20%
    19:00 +35°C° 0 mm 4 mps 682 mmHg 21%
    20:00 +34°C° 0 mm 4 mps 682 mmHg 22%
    21:00 +33°C° 0 mm 4 mps 682 mmHg 24%
    22:00 +32°C° 0 mm 4 mps 683 mmHg 25%
    23:00 +30°C° 0 mm 5 mps 682 mmHg 27%

    5 June, Friday

    Time Temperature Precipitation Wind Pressure Humidity
    00:00 +29°C° 0 mm 5 mps 682 mmHg 29%
    01:00 +29°C° 0 mm 5 mps 682 mmHg 31%
    02:00 +28°C° 0 mm 5 mps 681 mmHg 32%
    03:00 +28°C° 0 mm 5 mps 681 mmHg 33%
    04:00 +27°C° 0 mm 5 mps 681 mmHg 34%
    05:00 +28°C° 0 mm 5 mps 681 mmHg 33%
    06:00 +28°C° 0 mm 4 mps 681 mmHg 31%
    07:00 +29°C° 0 mm 4 mps 681 mmHg 30%
    08:00 +32°C° 0 mm 4 mps 681 mmHg 26%
    09:00 +34°C° 0 mm 5 mps 682 mmHg 22%
    10:00 +36°C° 0 mm 6 mps 682 mmHg 18%
    11:00 +38°C° 0 mm 7 mps 682 mmHg 16%
    12:00 +39°C° 0 mm 8 mps 682 mmHg 15%
    13:00 +40°C° 0 mm 9 mps 682 mmHg 13%
    14:00 +39°C° 0 mm 9 mps 682 mmHg 14%
    15:00 +39°C° 0 mm 10 mps 682 mmHg 14%
    16:00 +39°C° 0 mm 10 mps 682 mmHg 15%
    17:00 +38°C° 0 mm 9 mps 683 mmHg 16%
    18:00 +36°C° 0 mm 7 mps 683 mmHg 17%
    19:00 +35°C° 0 mm 6 mps 683 mmHg 18%
    20:00 +32°C° 0 mm 5 mps 683 mmHg 29%
    21:00 +28°C° 0 mm 5 mps 684 mmHg 40%
    22:00 +25°C° 0 mm 4 mps 684 mmHg 51%
    23:00 +23°C° 0 mm 4 mps 684 mmHg 53%
    Show more